Overview Statistics Trail Chart Weather Telemetry Raw packets
 

This is the latest recevied weather packets stored in our database for station/object KC5DAQ-26. If no packets are shown the sender has not sent any weather packets the latest 10 day(s).

<< 475 476 477 478 479 480 481 >>
Time Temp. Humidity Pressure Rain* Wind** Luminosity Snow
1787920051 23.33° C 96% 1019.3 hPa 0 mm - 21 W/m² -
1787919992 23.33° C 96% 1019.5 hPa 0 mm - 19 W/m² -
1787919933 23.33° C 96% 1019.4 hPa 0 mm - 18 W/m² -
1787919871 23.33° C 96% 1019.5 hPa 0 mm - 14 W/m² -
1787919812 23.33° C 96% 1019.4 hPa 0 mm - 14 W/m² -
1787919752 23.33° C 96% 1019.4 hPa 0 mm - 12 W/m² -
1787919692 23.33° C 96% 1019.4 hPa 0 mm - 12 W/m² -
1787919632 23.33° C 96% 1019.4 hPa 0 mm - 12 W/m² -
1787919571 23.33° C 96% 1019.3 hPa 0 mm - 12 W/m² -
1787919512 23.33° C 96% 1019.3 hPa 0 mm - 11 W/m² -
1787919452 23.33° C 96% 1019.3 hPa 0 mm - 12 W/m² -
1787919391 23.33° C 96% 1019.3 hPa 0 mm - 12 W/m² -
1787919333 23.33° C 96% 1019.3 hPa 0 mm - 12 W/m² -
1787919272 23.33° C 95% 1019.2 hPa 0 mm - 12 W/m² -
1787919209 23.33° C 95% 1019 hPa 0 mm - 11 W/m² -
1787919150 23.33° C 95% 1019.1 hPa 0 mm - 11 W/m² -
1787919086 23.33° C 95% 1019 hPa 0 mm - 9 W/m² -
1787919025 23.33° C 95% 1019.1 hPa 0 mm - 9 W/m² -
1787918964 23.33° C 95% 1019 hPa 0 mm - 9 W/m² -
1787918902 23.33° C 95% 1019.1 hPa 0 mm - 9 W/m² -
1787918840 23.33° C 95% 1019 hPa 0 mm - 9 W/m² -
1787918781 23.33° C 95% 1019 hPa 0 mm - 9 W/m² -
1787918717 23.33° C 95% 1019 hPa 0 mm - 7 W/m² -
1787918658 23.33° C 95% 1019 hPa 0 mm - 9 W/m² -
1787918595 23.33° C 95% 1019.1 hPa 0 mm - 9 W/m² -

* Rain latest hour (hover to see other rain measurements)
** Current wind speed in m/s (hover to see current wind gust speed)